Flag for U.S.A. Weather past 2 weeks in Rochester, New York, U.S.A.

Now
55 °F

Passing clouds.


Feels Like: 52 °F
Forecast: 48 / 63 °F
Wind: 12 mph from Southwest

Location: Greater Rochester International Airport

Current Time: Oct 25, 2014 at 11:06:36 AM

Latest Report: Oct 25, 2014 at 9:54 AM


Visibility: 10 mi

Pressure: 29.80 "Hg

Humidity: 74%

Dew point: 47 °F

Location of RochesterLocation

Historic Weather in Rochester — Graph

°F

Rochester temperature yesterday

Maximum temperature yesterday: 59 °F (at 1:54 PM)
Minimum temperature yesterday: 44 °F (at 11:54 PM)
Average temperature yesterday: 51 °F

Past Weeks' High & Low Weather Summary

 TemperatureHumidityPressure
High81 °F (Oct 14, 12:54 PM)100% (Oct 16, 6:54 AM)30.32 "Hg (Oct 16, 6:54 AM)
Low34 °F (Oct 12, 3:54 AM)38% (Oct 12, 3:54 PM)29.52 "Hg (Oct 18, 3:54 AM)
Average53 °F75%29.95 "Hg
* Reported Oct 10 9:54 AM — Oct 25 9:54 AM, Rochester, Weather by CustomWeather, © 2014

Note: Actual official high and low records may vary slightly from our data, if they occured in-between our weather recording intervals... More about our weather records

Advertising

Rochester weather history for previous 24 hours

 ConditionsComfort  
Time TempWeatherWind HumidityBarometerVisibility
9:54 AM
Oct 25
55 °FPassing clouds.12 mph74%29.80 "Hg10 mi
8:54 AM51 °FPartly sunny.7 mph83%29.83 "Hg8 mi
7:54 AM50 °FOvercast.8 mph83%29.84 "Hg8 mi
6:54 AM50 °FOvercast.8 mph86%29.85 "Hg8 mi
5:54 AM50 °FOvercast.6 mph86%29.86 "Hg7 mi
4:54 AM49 °FFog.5 mph90%29.87 "Hg6 mi
3:54 AM47 °FFog.5 mph93%29.89 "Hg6 mi
2:54 AM47 °FOvercast.5 mph90%29.90 "Hg7 mi
1:54 AM47 °FOvercast.5 mph90%29.92 "Hg8 mi
12:54 AM43 °FClear.6 mph93%29.92 "Hg7 mi
11:54 PM
Oct 24
44 °FPassing clouds.7 mph93%29.93 "Hg7 mi
10:54 PM47 °FPassing clouds.6 mph86%29.94 "Hg10 mi
9:54 PM46 °FPassing clouds.6 mph83%29.96 "Hg10 mi
8:54 PM47 °FPassing clouds.8 mph80%29.96 "Hg10 mi
7:54 PM49 °FPassing clouds.7 mph71%29.96 "Hg10 mi
6:54 PM51 °FBroken clouds.9 mph61%29.95 "Hg10 mi
5:54 PM53 °FBroken clouds.8 mph52%29.94 "Hg10 mi
4:54 PM56 °FPartly sunny.12 mph47%29.94 "Hg10 mi
3:54 PM59 °FPartly sunny.15 mph48%29.93 "Hg10 mi
2:54 PM59 °FScattered clouds.13 mph46%29.94 "Hg10 mi
1:54 PM59 °FPassing clouds.13 mph48%29.96 "Hg10 mi
12:54 PM58 °FPassing clouds.13 mph51%29.97 "Hg10 mi
11:54 AM56 °FPassing clouds.10 mph62%29.99 "Hg10 mi
Weather by CustomWeather, © 2014

See weather overviewHow to use our weather pages